Location: Bazinghen
(50.8246°N, 1.6616°E)
Time: 04:05:33
(UTC+00:00)

Cosmos 1459 Rocket - Pass Details

Date: 09 April 2020
Orbit: 936 x 1001 km, 83.0° (Epoch: 06 June)

Event Time Altitude Azimuth Distance (km) Brightness Sun altitude
Rises 23:27:32 0° 348° (NNW) 3,735 8.2 -30.8°
Reaches altitude 10° 23:30:05 10° 347° (NNW) 2,778 7.3 -30.9°
Enters shadow 23:36:06 70° 289° (WNW) 1,053 4.1 -31.0°
